Weather History for Claremore, OK

Change the Weather History Date:

Thursday, May 2, 2013

  Actual Average (KTUL) Record (KTUL)
Temperature  
Mean Temperature 48 °F 66 °F  
Max Temperature 64 °F 76 °F 94 °F (1943)
Min Temperature 33 °F 55 °F 32 °F (1909)
Degree Days  
Heating Degree Days 16 3  
Month to date heating degree days 6  
Since 1 July heating degree days 3541  
Cooling Degree Days 0 3  
Month to date cooling degree days 6  
Year to date cooling degree days 71  
Moisture  
Dew Point 38 °F    
Average Humidity 85    
Maximum Humidity 93    
Minimum Humidity 67    
Precipitation  
Precipitation 0.33 in 0.18 in 2.78 in (1990)
Month to date precipitation 0.36  
Year to date precipitation 10.95  
Sea Level Pressure  
Sea Level Pressure 30.30 in    
Wind  
Wind Speed 13 mph (North)    
Max Wind Speed 21 mph    
Max Gust Speed 32 mph    
Visibility 8 miles    
Events Rain    
T = Trace of Precipitation, MM = Missing Value Source: NWS Daily Summary

Daily Weather History Graph

Daily Weather History Graph

Search for Another Location

Airport:

Trip Planner

Search our weather history database for the weather conditions in past years. The results will help you decide how hot, cold, wet, or windy it might be!

Date:

Astronomy

May. 02, 2013 Rise Set
Actual Time 6:27 AM CDT 8:10 PM CDT
Civil Twilight 5:59 AM CDT 8:38 PM CDT
Nautical Twilight 5:26 AM CDT 9:12 PM CDT
Astronomical Twilight 4:51 AM CDT 9:47 PM CDT
Moon 2:02 AM CDT (5/2) 1:13 PM CDT (5/2)
Length of Visible Light 14h 38m
Length of Day
13h 43m
Waning Gibbous, 47% of the Moon is Illuminated
May 2
Waning Gibbous
May 9
New
May 17
First Quarter
May 24
Full
May 31
Last Quarter

Hourly Weather History & Observations

Time (CDT) Temp. Windchill Dew Point Humidity Pressure Visibility Wind Dir Wind Speed Gust Speed Precip Events Conditions
12:15 AM 64.4 °F - 55.4 °F 73% 30.09 in 10.0 mi WNW 15.0 mph 21.9 mph N/A   Mostly Cloudy
12:35 AM 57.2 °F - 46.4 °F 67% 30.11 in 10.0 mi NNW 13.8 mph 17.3 mph N/A   Mostly Cloudy
12:55 AM 53.6 °F - 46.4 °F 77% 30.13 in 10.0 mi NNW 10.4 mph 18.4 mph N/A   Scattered Clouds
1:15 AM 53.6 °F - 44.6 °F 72% 30.13 in 10.0 mi NNW 10.4 mph 18.4 mph N/A   Clear
1:35 AM 53.6 °F - 44.6 °F 72% 30.14 in 10.0 mi North 9.2 mph 17.3 mph N/A   Scattered Clouds
1:55 AM 51.8 °F - 44.6 °F 76% 30.14 in 10.0 mi NNW 8.1 mph - N/A   Scattered Clouds
2:15 AM 51.8 °F - 44.6 °F 76% 30.15 in 10.0 mi NNW 9.2 mph - N/A   Mostly Cloudy
2:35 AM 51.8 °F - 44.6 °F 76% 30.16 in 10.0 mi North 9.2 mph 18.4 mph N/A   Mostly Cloudy
2:55 AM 50.0 °F - 42.8 °F 76% 30.17 in 10.0 mi North 8.1 mph - N/A   Overcast
3:15 AM 50.0 °F - 42.8 °F 76% 30.18 in 10.0 mi North 9.2 mph 19.6 mph N/A   Overcast
3:35 AM 50.0 °F - 42.8 °F 76% 30.19 in 10.0 mi NNW 8.1 mph - N/A   Overcast
3:55 AM 48.2 °F - 41.0 °F 76% 30.20 in 10.0 mi North 8.1 mph 16.1 mph N/A   Overcast
4:15 AM 48.2 °F - 41.0 °F 76% 30.20 in 10.0 mi North 12.7 mph 19.6 mph N/A   Overcast
4:35 AM 46.4 °F 41.5 °F 41.0 °F 81% 30.21 in 10.0 mi North 10.4 mph 16.1 mph N/A   Overcast
4:55 AM 46.4 °F 41.1 °F 41.0 °F 81% 30.23 in 10.0 mi North 11.5 mph 21.9 mph N/A   Overcast
5:15 AM 46.4 °F 41.1 °F 41.0 °F 81% 30.23 in 10.0 mi NNW 11.5 mph - N/A   Overcast
5:35 AM 44.6 °F 39.2 °F 39.2 °F 81% 30.24 in 10.0 mi North 10.4 mph 21.9 mph N/A   Overcast
5:55 AM 44.6 °F 37.4 °F 37.4 °F 76% 30.23 in 10.0 mi North 16.1 mph 23.0 mph N/A   Overcast
6:15 AM 44.6 °F 37.8 °F 37.4 °F 76% 30.24 in 10.0 mi North 15.0 mph 19.6 mph N/A   Overcast
6:35 AM 44.6 °F 38.1 °F 37.4 °F 76% 30.25 in 10.0 mi North 13.8 mph 19.6 mph N/A   Overcast
6:55 AM 44.6 °F 39.2 °F 37.4 °F 76% 30.25 in 10.0 mi North 10.4 mph 18.4 mph N/A   Overcast
7:15 AM 44.6 °F 38.8 °F 39.2 °F 81% 30.26 in 10.0 mi North 11.5 mph - N/A   Overcast
7:35 AM 44.6 °F 38.8 °F 39.2 °F 81% 30.28 in 10.0 mi NNW 11.5 mph 17.3 mph N/A   Overcast
8:15 AM 44.6 °F 39.2 °F 39.2 °F 81% 30.30 in 10.0 mi North 10.4 mph - N/A   Overcast
8:35 AM 44.6 °F 39.7 °F 41.0 °F 87% 30.30 in 10.0 mi NNW 9.2 mph 18.4 mph N/A   Overcast
8:55 AM 44.6 °F 38.8 °F 41.0 °F 87% 30.31 in 10.0 mi NNW 11.5 mph 20.7 mph N/A   Overcast
9:15 AM 44.6 °F 37.8 °F 41.0 °F 87% 30.31 in 5.0 mi NNW 15.0 mph 20.7 mph N/A   Overcast
9:35 AM 42.8 °F 37.0 °F 41.0 °F 93% 30.30 in 7.0 mi North 10.4 mph 16.1 mph N/A   Overcast
9:55 AM 44.6 °F 38.1 °F 41.0 °F 87% 30.30 in 10.0 mi North 13.8 mph 21.9 mph N/A   Overcast
10:15 AM 44.6 °F 38.8 °F 41.0 °F 87% 30.30 in 10.0 mi North 11.5 mph 20.7 mph N/A   Overcast
10:35 AM 44.6 °F 39.2 °F 39.2 °F 81% 30.31 in 10.0 mi North 10.4 mph 21.9 mph N/A   Overcast
10:55 AM 44.6 °F 38.4 °F 39.2 °F 81% 30.31 in 10.0 mi North 12.7 mph 19.6 mph N/A   Overcast
11:35 AM 44.6 °F 37.4 °F 39.2 °F 81% 30.32 in 10.0 mi North 16.1 mph 21.9 mph N/A   Overcast
11:55 AM 44.6 °F 38.4 °F 39.2 °F 81% 30.33 in 10.0 mi North 12.7 mph 23.0 mph N/A   Overcast
12:15 PM 44.6 °F 38.1 °F 39.2 °F 81% 30.33 in 10.0 mi NNW 13.8 mph 18.4 mph N/A   Overcast
12:35 PM 42.8 °F 35.1 °F 39.2 °F 87% 30.34 in 5.0 mi North 16.1 mph 21.9 mph N/A   Overcast
12:55 PM 42.8 °F 34.8 °F 39.2 °F 87% 30.34 in 7.0 mi NNW 17.3 mph 24.2 mph N/A   Drizzle
1:15 PM 42.8 °F 36.2 °F 39.2 °F 87% 30.35 in 4.0 mi NNW 12.7 mph 23.0 mph N/A   Light Drizzle
1:35 PM 42.8 °F 35.1 °F 37.4 °F 81% 30.34 in 7.0 mi NNW 16.1 mph 21.9 mph N/A   Overcast
1:55 PM 42.8 °F 35.4 °F 37.4 °F 81% 30.33 in 10.0 mi North 15.0 mph 20.7 mph N/A   Overcast
2:15 PM 41.0 °F 33.1 °F 37.4 °F 87% 30.35 in 10.0 mi North 15.0 mph - N/A   Overcast
2:35 PM 41.0 °F 32.8 °F 35.6 °F 81% 30.34 in 10.0 mi North 16.1 mph 21.9 mph N/A   Overcast
2:55 PM 41.0 °F 33.1 °F 35.6 °F 81% 30.35 in 10.0 mi North 15.0 mph 19.6 mph 0.01 in Rain Rain
3:15 PM 39.2 °F 31.2 °F 35.6 °F 87% 30.35 in 7.0 mi North 13.8 mph 23.0 mph 0.02 in Rain Light Rain
3:35 PM 41.0 °F 33.1 °F 37.4 °F 87% 30.35 in 10.0 mi North 15.0 mph 21.9 mph 0.04 in Rain Light Rain
3:55 PM 39.2 °F 30.5 °F 37.4 °F 93% 30.34 in 10.0 mi North 16.1 mph 25.3 mph 0.04 in   Light Drizzle
4:15 PM 39.2 °F 31.2 °F 37.4 °F 93% 30.35 in 10.0 mi North 13.8 mph 20.7 mph N/A Rain Rain
4:35 PM 39.2 °F 31.6 °F 35.6 °F 87% 30.35 in 10.0 mi North 12.7 mph 25.3 mph 0.01 in Rain Rain
4:55 PM 37.4 °F 26.9 °F 35.6 °F 93% 30.34 in 10.0 mi North 20.7 mph 32.2 mph 0.01 in   Light Drizzle
5:15 PM 37.4 °F 27.8 °F 35.6 °F 93% 30.34 in 10.0 mi North 17.3 mph 31.1 mph N/A   Overcast
5:35 PM 37.4 °F 28.2 °F 33.8 °F 87% 30.34 in 10.0 mi North 16.1 mph 28.8 mph N/A   Overcast
5:55 PM 37.4 °F 27.8 °F 33.8 °F 87% 30.35 in 2.0 mi North 17.3 mph 24.2 mph 0.09 in Rain Heavy Rain
6:15 PM 37.4 °F 27.8 °F 35.6 °F 93% 30.36 in 2.0 mi North 17.3 mph 26.5 mph 0.04 in Rain Rain
6:35 PM 37.4 °F 29.3 °F 35.6 °F 93% 30.37 in 7.0 mi North 12.7 mph 23.0 mph 0.06 in Rain Light Rain
6:55 PM 35.6 °F 27.5 °F 33.8 °F 93% 30.37 in 10.0 mi North 11.5 mph 27.6 mph 0.07 in Rain Rain
7:15 PM 35.6 °F 26.2 °F 33.8 °F 93% 30.37 in 3.0 mi North 15.0 mph 26.5 mph 0.01 in Rain Light Rain
7:35 PM 35.6 °F 26.6 °F 33.8 °F 93% 30.37 in 7.0 mi North 13.8 mph 26.5 mph 0.02 in   Drizzle
7:55 PM 35.6 °F 25.9 °F 33.8 °F 93% 30.38 in 4.0 mi North 16.1 mph 24.2 mph 0.02 in   Drizzle
8:15 PM 33.8 °F 23.5 °F 32.0 °F 93% 30.38 in 2.5 mi North 16.1 mph 26.5 mph 0.03 in Rain Light Rain
8:35 PM 33.8 °F 24.3 °F 32.0 °F 93% 30.39 in 3.0 mi North 13.8 mph 23.0 mph 0.03 in Rain Light Rain
8:55 PM 33.8 °F 24.3 °F 32.0 °F 93% 30.39 in 3.0 mi North 13.8 mph 24.2 mph 0.03 in Rain Rain
9:15 PM 33.8 °F 23.9 °F 32.0 °F 93% 30.39 in 3.0 mi North 15.0 mph 24.2 mph N/A Rain Rain
9:35 PM 33.8 °F 24.8 °F 32.0 °F 93% 30.39 in 3.0 mi North 12.7 mph 23.0 mph 0.01 in Rain Rain
9:55 PM 33.8 °F 23.5 °F 32.0 °F 93% 30.39 in 3.0 mi North 16.1 mph 23.0 mph 0.01 in Rain Light Rain
10:15 PM 33.8 °F 23.9 °F 32.0 °F 93% 30.40 in 2.5 mi North 15.0 mph 20.7 mph 0.01 in Rain Light Rain
10:35 PM 33.8 °F 24.8 °F 32.0 °F 93% 30.40 in 2.5 mi North 12.7 mph 21.9 mph 0.02 in Rain Light Rain
10:55 PM 33.8 °F 26.4 °F 32.0 °F 93% 30.39 in 3.0 mi North 9.2 mph - 0.03 in Rain Rain
11:15 PM 33.8 °F 24.8 °F 32.0 °F 93% 30.39 in 2.5 mi North 12.7 mph 21.9 mph 0.01 in Rain Rain
11:35 PM 33.8 °F 24.8 °F 32.0 °F 93% 30.38 in 3.0 mi North 12.7 mph 18.4 mph 0.02 in Rain Rain
11:55 PM 33.8 °F 24.3 °F 32.0 °F 93% 30.38 in 4.0 mi North 13.8 mph 20.7 mph 0.02 in Rain Rain